Proserpine Hamilton Isla, Australia

5:24 PM AEST on March 23, 2017 (GMT +1000)
Proserpine Hamilton Isla

Weather History for 94368 - July, 2013

Change the Weather History Date:

Tuesday, July 23, 2013

  Actual Average Record
Temperature  
Mean Temperature 66 °F -  
Max Temperature 69 °F - - ()
Min Temperature 64 °F - - ()
Cooling Degree Days 2    
Growing Degree Days 16 (Base 50)    
Moisture  
Dew Point 64 °F    
Average Humidity 88    
Maximum Humidity 100    
Minimum Humidity 64    
Precipitation  
Precipitation 0.02 in - - ()
Sea Level Pressure  
Sea Level Pressure 30.11 in    
Wind  
Wind Speed 14 mph ()    
Max Wind Speed 28 mph    
Max Gust Speed -    
T = Trace of Precipitation, MM = Missing Value Source: Averaged Metar Reports

Daily Weather History Graph

Daily Weather History Graph

Search for Another Location

Airport or City:

Trip Planner

Search our weather history database for the weather conditions in past years. The results will help you decide how hot, cold, wet, or windy it might be!

Date:

Astronomy

Jul. 23, 2013 Rise Set
Actual Time 6:38 AM AEST 5:43 PM AEST
Civil Twilight 6:14 AM AEST 6:06 PM AEST
Nautical Twilight 5:47 AM AEST 6:33 PM AEST
Astronomical Twilight 5:21 AM AEST 7:00 PM AEST
Moon 6:19 PM AEST 6:33 AM AEST
Length of Visible Light 11h 52m
Length of Day
11h 05m
Full, 100% of the Moon is Illuminated
Jul 23
Full
Jul 30
Last Quarter
Aug 7
New
Aug 14
First Quarter
Aug 21
Full

Hourly Weather History & Observations

Time (AEST) Temp. Dew Point Humidity Pressure Visibility Wind Dir Wind Speed Gust Speed Precip Events Conditions
12:00 AM 69 °F 69 °F 100% 30.11 in - SSE 11.5 mph - -  
12:00 AM 69.8 °F 69.8 °F 100% 30.09 in - SSE 11.5 mph - N/A   Unknown
12:30 AM 69.8 °F 69.8 °F 100% 30.09 in - SSE 10.4 mph - N/A   Unknown
1:00 AM 68.0 °F 68.0 °F 100% 30.09 in - SSE 11.5 mph - N/A   Unknown
1:30 AM 68.0 °F 68.0 °F 100% 30.09 in - SSE 10.4 mph - N/A   Unknown
2:00 AM 68.0 °F 68.0 °F 100% 30.06 in - SE 12.7 mph - N/A   Unknown
2:30 AM 69.8 °F 69.8 °F 100% 30.06 in - SSE 11.5 mph - N/A   Unknown
3:00 AM 69 °F - % 30.08 in - SSE 11.5 mph - -  
3:00 AM 69.8 °F 69.8 °F 100% 30.06 in - SSE 11.5 mph - N/A   Unknown
3:30 AM - - N/A% 30.06 in - SSE 11.5 mph - N/A   Unknown
4:00 AM - - N/A% 30.06 in - SSE 12.7 mph - N/A   Unknown
4:30 AM 68.0 °F 68.0 °F 100% 30.06 in - SSE 12.7 mph - N/A   Unknown
5:00 AM 68.0 °F 68.0 °F 100% 30.06 in - SSE 12.7 mph - N/A   Unknown
5:30 AM 68.0 °F 68.0 °F 100% 30.09 in - SSE 12.7 mph - N/A   Unknown
6:00 AM 69 °F - % 30.10 in - SSE 16.1 mph - -  
6:00 AM - - N/A% 30.09 in - SSE 16.1 mph - N/A   Unknown
6:30 AM 68.0 °F 68.0 °F 100% 30.12 in - South 16.1 mph - N/A   Unknown
7:00 AM 68.0 °F 68.0 °F 100% 30.12 in - SSE 15.0 mph - N/A   Unknown
7:30 AM 68.0 °F 68.0 °F 100% 30.12 in - SSE 16.1 mph - N/A   Unknown
8:00 AM 68.0 °F 68.0 °F 100% 30.12 in - SSE 17.3 mph - N/A   Unknown
8:30 AM 68.0 °F 68.0 °F 100% 30.12 in - SSE 18.4 mph - N/A   Unknown
9:00 AM 69 °F 67 °F 90% 30.15 in - SSE 16.1 mph - -  
9:00 AM 69.8 °F 66.2 °F 88% 30.15 in - SSE 16.1 mph - N/A   Unknown
9:30 AM 69.8 °F 66.2 °F 88% 30.15 in - SSE 24.2 mph - N/A   Unknown
10:00 AM 69.8 °F 66.2 °F 88% 30.15 in - SSE 18.4 mph - N/A   Unknown
10:30 AM 68.0 °F 66.2 °F 94% 30.15 in - SSE 17.3 mph - N/A   Unknown
11:00 AM 68.0 °F 66.2 °F 94% 30.12 in - SE 20.7 mph - N/A   Unknown
11:30 AM 68.0 °F 64.4 °F 88% 30.12 in - SSE 18.4 mph - N/A   Unknown
12:00 PM 68 °F 65 °F 87% 30.13 in - SSE 16.1 mph - -  
12:00 PM 68.0 °F 64.4 °F 88% 30.12 in - SSE 16.1 mph - N/A   Unknown
12:30 PM 68.0 °F 64.4 °F 88% 30.09 in - SSE 19.6 mph - N/A   Unknown
1:00 PM 68.0 °F 64.4 °F 88% 30.09 in - SSE 18.4 mph - N/A   Unknown
1:30 PM 68.0 °F 64.4 °F 88% 30.09 in - SSE 19.6 mph - N/A   Unknown
2:00 PM 68.0 °F 62.6 °F 83% 30.06 in - SSE 18.4 mph - N/A   Unknown
2:30 PM 68.0 °F 62.6 °F 83% 30.06 in - SSE 19.6 mph - N/A   Unknown
3:00 PM 67 °F 63 °F 83% 30.07 in - SSE 18.4 mph - -  
3:00 PM 66.2 °F 62.6 °F 88% 30.06 in - SSE 18.4 mph - N/A   Unknown
3:30 PM 66.2 °F 62.6 °F 88% 30.06 in - SSE 18.4 mph - N/A   Unknown
4:00 PM 66.2 °F 62.6 °F 88% 30.06 in - SSE 16.1 mph - N/A   Unknown
4:30 PM 66.2 °F 62.6 °F 88% 30.09 in - SSE 16.1 mph - N/A   Unknown
5:00 PM 66.2 °F 62.6 °F 88% 30.09 in - SSE 15.0 mph - N/A   Unknown
5:30 PM 66.2 °F 62.6 °F 88% 30.09 in - SSE 15.0 mph - N/A   Unknown
6:00 PM 65 °F 61 °F 84% 30.10 in - SSE 19.6 mph - -  
6:00 PM 66.2 °F 60.8 °F 83% 30.09 in - SSE 19.6 mph - N/A   Unknown
6:30 PM 66.2 °F 60.8 °F 83% 30.12 in - SSE 20.7 mph - N/A   Unknown
7:00 PM 66.2 °F 60.8 °F 83% 30.12 in - SSE 20.7 mph - N/A   Unknown
7:30 PM 64.4 °F 60.8 °F 88% 30.15 in - SSE 19.6 mph - N/A   Unknown
8:00 PM 64.4 °F 59.0 °F 83% 30.15 in - South 19.6 mph - N/A   Unknown
8:30 PM 64.4 °F 57.2 °F 77% 30.15 in - SSE 17.3 mph - N/A   Unknown
9:00 PM 64 °F 55 °F 65% 30.15 in - SSE 21.9 mph - -  
9:00 PM 64.4 °F 55.4 °F 73% 30.15 in - SSE 21.9 mph - N/A   Unknown
9:30 PM 64.4 °F 55.4 °F 73% 30.15 in - SSE 21.9 mph - N/A   Unknown
10:00 PM 64.4 °F 55.4 °F 73% 30.15 in - SE 21.9 mph - N/A   Unknown
10:30 PM 64.4 °F 53.6 °F 68% 30.15 in - SE 21.9 mph - N/A   Unknown
11:00 PM 64.4 °F 53.6 °F 68% 30.15 in - SE 21.9 mph - N/A   Unknown
11:30 PM 66.2 °F 53.6 °F 64% 30.15 in - SE 27.6 mph - N/A   Unknown